Garabogaz

Turkmenistan     41˚32′23″N   52˚34′12″E
temp.,
°C
wind,
m/s
gust,
m/s
humid.,
%
clouds,
%
prec.,
mm/h
давл.,
hPa
HPBL,
m
27 november, fri
fri2723:00+6˚nne5572100 0.0 1022366
02:00+6˚nne6766100 0.0 1023429
05:00+6˚ne4563100 0.0 1023325
08:00+7˚nne2257100 0.0 1025273
11:00+9˚nw5772100 0.1 1028982
14:00+8˚nnw997392 0.5 10291180
17:00+7˚nnw786596 0.6 10301391
20:00+8˚nnw555752 0.0 10331291
28 november, sat
sat2823:00+7˚ese225726 0.0 1035418
02:00+7˚se66682 0.0 1035725
05:00+7˚se767349 0.0 1035489
08:00+6˚se897424 0.0 1035388
11:00+7˚se10127312 0.0 1036458
14:00+9˚se1011620 0.0 1034679
17:00+10˚ese910530 0.0 1033921
20:00+9˚ese1011540 0.0 1033735
29 november, sun
sun2923:00+7˚ese11146315 0.0 1033635
02:00+6˚e121667100 0.0 1032592
05:00+6˚e12176994 0.0 1031641
08:00+6˚e14196994 0.0 1030706
11:00+7˚ese15206297 0.0 1031865
14:00+10˚ese141748100 0.0 10301126
17:00+11˚ese13174198 0.0 10281176
20:00+9˚e131843100 0.0 10281049
30 november, mon
mon3023:00+7˚e141951100 0.0 1028919
02:00+7˚e141853100 0.0 1027889
05:00+6˚e141758100 0.0 1027871
08:00+5˚e141760100 0.3 1027938
11:00+3˚e141781100 2.0 1027738
14:00+2˚e141799100 3.7 1027900
17:00+3˚e131697100 5.4 1026918
20:00+2˚e131699100 0.6 1027854
1 december, tue
tue123:00+3˚e121599100 1.4 1028763
02:00+3˚e111299100 0.5 1027640
05:00+3˚e101198100 0.8 1027568
08:00+4˚e111380100 0.1 1027618
11:00+3˚e11148195 0.1 1027547
14:00+4˚e10127591 0.0 1026539
17:00+5˚e10127293 0.1 1026561
20:00+5˚ese101174100 0.3 1026599